| time (UTC) | temp F | wind direction | speed MPH | gust MPH | rain 1hr in | rain 24hr in | rain mn in | humidity % | barometer mb |
| 20260503041550 | 38 | 59 | 1.0 | 2.0 | 0.00 | 0.00 | 0.00 | 77 | 1017.6 |
| 20260503034559 | 39 | 0 | 1.0 | 2.0 | 0.00 | 0.00 | 0.00 | 76 | 1017.2 |
| 20260503033057 | 40 | 0 | 0.0 | 2.0 | 0.00 | 0.00 | 0.00 | 74 | 1017.3 |
| 20260503031553 | 40 | 59 | 1.0 | 3.0 | 0.00 | 0.00 | 0.00 | 73 | 1017.0 |
| 20260503030124 | 41 | 0 | 0.0 | 2.0 | 0.00 | 0.00 | 0.00 | 71 | 1017.1 |
| 20260503024549 | 42 | 0 | 0.0 | 2.0 | 0.00 | 0.00 | 0.00 | 68 | 1017.0 |
| 20260503023054 | 43 | 59 | 0.0 | 3.0 | 0.00 | 0.00 | 0.00 | 67 | 1016.9 |
| 20260503021552 | 44 | 59 | 1.0 | 2.0 | 0.00 | 0.00 | 0.00 | 64 | 1016.8 |
| 20260503020052 | 45 | 59 | 0.0 | 3.0 | 0.00 | 0.00 | 0.00 | 63 | 1016.5 |
| 20260503014602 | 45 | 48 | 1.0 | 5.0 | 0.00 | 0.00 | 0.00 | 60 | 1016.3 |
| 20260503013055 | 45 | 0 | 1.0 | 4.0 | 0.00 | 0.00 | 0.00 | 60 | 1016.1 |
| 20260503011559 | 45 | 51 | 2.0 | 4.0 | 0.00 | 0.00 | 0.00 | 61 | 1016.1 |
| 20260503010104 | 45 | 19 | 1.0 | 3.0 | 0.00 | 0.00 | 0.00 | 60 | 1015.8 |
| 20260503004557 | 46 | 0 | 0.0 | 7.0 | 0.00 | 0.00 | 0.00 | 57 | 1015.7 |
| 20260503003118 | 47 | 38 | 1.0 | 4.0 | 0.00 | 0.00 | 0.00 | 58 | 1015.6 |
| 20260503001553 | 48 | 0 | 0.0 | 8.0 | 0.00 | 0.00 | 0.00 | 52 | 1015.3 |
| 20260503000058 | 49 | 96 | 2.0 | 8.0 | 0.00 | 0.00 | 0.00 | 48 | 1015.1 |
| 20260502234605 | 49 | 297 | 1.0 | 4.0 | 0.00 | 0.00 | 0.00 | 50 | 1014.9 |
| 20260502233104 | 50 | 235 | 0.0 | 7.0 | 0.00 | 0.00 | 0.00 | 50 | 1014.7 |
| 20260502231604 | 51 | 0 | 1.0 | 8.0 | 0.00 | 0.00 | 0.00 | 47 | 1014.5 |
| 20260502230050 | 51 | 220 | 3.0 | 11.0 | 0.00 | 0.00 | 0.00 | 44 | 1014.5 |
| 20260502224558 | 52 | 284 | 4.0 | 15.0 | 0.00 | 0.00 | 0.00 | 43 | 1014.5 |
| 20260502223053 | 53 | 229 | 1.0 | 11.0 | 0.00 | 0.00 | 0.00 | 41 | 1014.5 |
| 20260502221552 | 54 | 216 | 2.0 | 13.0 | 0.00 | 0.00 | 0.00 | 42 | 1014.3 |
| 20260502220050 | 53 | 234 | 6.0 | 14.0 | 0.00 | 0.00 | 0.00 | 42 | 1014.1 |
| 20260502214556 | 55 | 299 | 1.0 | 15.0 | 0.00 | 0.00 | 0.00 | 45 | 1014.0 |
| 20260502213053 | 54 | 239 | 4.0 | 20.0 | 0.00 | 0.00 | 0.00 | 42 | 1013.4 |
| 20260502211554 | 53 | 288 | 1.0 | 9.0 | 0.00 | 0.00 | 0.00 | 46 | 1013.7 |
| 20260502210054 | 53 | 223 | 3.0 | 10.0 | 0.00 | 0.00 | 0.00 | 46 | 1013.3 |
| 20260502204602 | 52 | 252 | 2.0 | 11.0 | 0.00 | 0.00 | 0.00 | 46 | 1013.4 |
| 20260502203113 | 54 | 273 | 6.0 | 12.0 | 0.00 | 0.00 | 0.00 | 41 | 1013.5 |
| 20260502201554 | 57 | 207 | 2.0 | 8.0 | 0.00 | 0.00 | 0.00 | 42 | 1013.2 |
| 20260502200052 | 53 | 0 | 4.0 | 10.0 | 0.00 | 0.00 | 0.00 | 45 | 1013.4 |
| 20260502194559 | 53 | 346 | 2.0 | 9.0 | 0.00 | 0.00 | 0.00 | 50 | 1013.6 |
| 20260502193051 | 53 | 183 | 1.0 | 10.0 | 0.00 | 0.00 | 0.00 | 47 | 1013.6 |
| 20260502191556 | 54 | 142 | 3.0 | 8.0 | 0.00 | 0.00 | 0.00 | 46 | 1013.7 |
| 20260502190050 | 55 | 206 | 3.0 | 7.0 | 0.00 | 0.00 | 0.00 | 41 | 1013.6 |
| 20260502184546 | 57 | 223 | 2.0 | 10.0 | 0.00 | 0.00 | 0.00 | 46 | 1013.8 |
| 20260502183053 | 55 | 61 | 3.0 | 7.0 | 0.00 | 0.00 | 0.00 | 47 | 1013.9 |
| 20260502181607 | 55 | 164 | 3.0 | 7.0 | 0.00 | 0.00 | 0.00 | 48 | 1014.0 |
| 20260502163051 | 53 | 313 | 1.0 | 8.0 | 0.00 | 0.00 | 0.00 | 45 | 1014.9 |
| 20260502161557 | 52 | 160 | 3.0 | 8.0 | 0.00 | 0.00 | 0.00 | 52 | 1015.0 |
| 20260502151602 | 49 | 209 | 4.0 | 7.0 | 0.00 | 0.00 | 0.00 | 51 | 1015.4 |
| 20260502123051 | 46 | 86 | 1.0 | 4.0 | 0.00 | 0.00 | 0.00 | 73 | 1014.9 |
| 20260502121554 | 45 | 237 | 2.0 | 5.0 | 0.00 | 0.00 | 0.00 | 71 | 1015.0 |
| 20260502114556 | 45 | 294 | 1.0 | 5.0 | 0.00 | 0.00 | 0.00 | 77 | 1014.5 |
| 20260502113059 | 45 | 177 | 1.0 | 4.0 | 0.00 | 0.00 | 0.00 | 76 | 1014.5 |
| 20260502111554 | 46 | 0 | 1.0 | 4.0 | 0.00 | 0.00 | 0.00 | 78 | 1014.3 |
| 20260502110059 | 46 | 254 | 1.0 | 3.0 | 0.00 | 0.00 | 0.00 | 77 | 1014.1 |
| 20260502104555 | 46 | 331 | 0.0 | 4.0 | 0.00 | 0.00 | 0.00 | 76 | 1014.2 |
| 20260502103053 | 46 | 340 | 1.0 | 5.0 | 0.00 | 0.00 | 0.00 | 76 | 1014.0 |
| 20260502101552 | 46 | 250 | 2.0 | 4.0 | 0.00 | 0.00 | 0.00 | 75 | 1013.8 |
| 20260502080105 | 49 | 40 | 1.0 | 4.0 | 0.00 | 0.00 | 0.00 | 74 | 1014.6 |
| 20260502070052 | 49 | 48 | 0.0 | 3.0 | 0.00 | 0.00 | 0.00 | 75 | 1014.5 |
| 20260502064559 | 49 | 38 | 2.0 | 4.0 | 0.00 | 0.00 | 0.00 | 75 | 1014.5 |
| 20260502063055 | 50 | 23 | 0.0 | 2.0 | 0.00 | 0.00 | 0.00 | 75 | 1014.3 |
| 20260502061553 | 50 | 95 | 1.0 | 6.0 | 0.00 | 0.00 | 0.00 | 75 | 1014.2 |
| 20260502060054 | 50 | 198 | 0.0 | 4.0 | 0.00 | 0.00 | 0.00 | 74 | 1014.4 |
| 20260502054558 | 51 | 173 | 1.0 | 4.0 | 0.00 | 0.00 | 0.00 | 73 | 1014.7 |
| 20260502053051 | 51 | 113 | 1.0 | 7.0 | 0.00 | 0.00 | 0.00 | 72 | 1014.7 |
| 20260502051558 | 51 | 89 | 1.0 | 7.0 | 0.00 | 0.00 | 0.00 | 70 | 1014.8 |
| 20260502050056 | 52 | 5 | 1.0 | 5.0 | 0.00 | 0.00 | 0.00 | 69 | 1014.8 |
| 20260502044555 | 52 | 46 | 1.0 | 4.0 | 0.00 | 0.00 | 0.00 | 67 | 1014.7 |
| 20260502043055 | 51 | 278 | 1.0 | 4.0 | 0.00 | 0.00 | 0.00 | 67 | 1014.6 |